Time,TemperatureF,DewpointF,PressureIn,WindDirection,WindDirectionDegrees,WindSpeedMPH,WindSpeedGustMPH,Humidity,HourlyPrecipIn,Conditions,Clouds,dailyrainin,SoftwareType,DateUTC
2013-10-05 00:06:00,69.5,66.0,30.02,SW,218,0.0,0.0,88,0.00,,,0.00,weatherlink.com 1.10,2013-10-05 05:06:00,
2013-10-05 00:21:00,69.3,66.0,30.01,SW,218,0.0,0.0,88,0.00,,,0.00,weatherlink.com 1.10,2013-10-05 05:21:00,
2013-10-05 00:36:00,68.9,66.0,30.02,SW,218,0.0,0.0,89,0.00,,,0.00,weatherlink.com 1.10,2013-10-05 05:36:00,
2013-10-05 00:51:00,68.8,66.0,30.02,SW,218,0.0,0.0,89,0.00,,,0.00,weatherlink.com 1.10,2013-10-05 05:51:00,
2013-10-05 01:06:00,68.8,66.0,30.03,SW,218,0.0,0.0,89,0.00,,,0.00,weatherlink.com 1.10,2013-10-05 06:06:00,
2013-10-05 01:21:00,68.8,66.0,30.03,SW,218,0.0,0.0,89,0.00,,,0.00,weatherlink.com 1.10,2013-10-05 06:21:00,
2013-10-05 01:36:00,68.6,65.0,30.02,SW,218,0.0,0.0,89,0.00,,,0.00,weatherlink.com 1.10,2013-10-05 06:36:00,
2013-10-05 01:51:00,68.6,65.0,30.02,SW,218,0.0,0.0,89,0.00,,,0.00,weatherlink.com 1.10,2013-10-05 06:51:00,
2013-10-05 02:06:00,68.4,65.0,30.02,SW,218,0.0,0.0,89,0.00,,,0.00,weatherlink.com 1.10,2013-10-05 07:06:00,
2013-10-05 02:21:00,68.3,65.0,30.02,SW,218,0.0,0.0,89,0.00,,,0.00,weatherlink.com 1.10,2013-10-05 07:21:00,
2013-10-05 02:36:00,68.0,65.0,30.02,SW,218,0.0,0.0,89,0.00,,,0.00,weatherlink.com 1.10,2013-10-05 07:36:00,
2013-10-05 02:51:00,67.7,64.0,30.01,SW,218,0.0,0.0,89,0.00,,,0.00,weatherlink.com 1.10,2013-10-05 07:51:00,
2013-10-05 03:06:00,67.7,64.0,30.01,SW,218,0.0,0.0,89,0.00,,,0.00,weatherlink.com 1.10,2013-10-05 08:06:00,
2013-10-05 03:21:00,67.7,64.0,30.01,SW,218,0.0,0.0,89,0.00,,,0.00,weatherlink.com 1.10,2013-10-05 08:21:00,
2013-10-05 03:36:00,67.7,64.0,30.01,SW,218,0.0,0.0,89,0.00,,,0.00,weatherlink.com 1.10,2013-10-05 08:36:00,
2013-10-05 03:51:00,67.8,65.0,30.01,SW,218,0.0,0.0,89,0.00,,,0.00,weatherlink.com 1.10,2013-10-05 08:51:00,
2013-10-05 04:06:00,67.7,65.0,30.01,SW,218,0.0,0.0,90,0.00,,,0.00,weatherlink.com 1.10,2013-10-05 09:06:00,
2013-10-05 04:21:00,67.7,65.0,30.01,SW,218,0.0,0.0,90,0.00,,,0.00,weatherlink.com 1.10,2013-10-05 09:21:00,
2013-10-05 04:36:00,68.1,65.0,30.01,SW,218,0.0,0.0,90,0.00,,,0.00,weatherlink.com 1.10,2013-10-05 09:36:00,
2013-10-05 04:51:00,67.8,65.0,30.01,SW,218,0.0,0.0,89,0.00,,,0.00,weatherlink.com 1.10,2013-10-05 09:51:00,
2013-10-05 05:06:00,67.6,65.0,30.01,SW,218,0.0,0.0,90,0.00,,,0.00,weatherlink.com 1.10,2013-10-05 10:06:00,
2013-10-05 05:21:00,67.3,64.0,30.01,SW,218,0.0,0.0,89,0.00,,,0.00,weatherlink.com 1.10,2013-10-05 10:21:00,
2013-10-05 05:36:00,67.0,64.0,30.01,SW,218,0.0,0.0,90,0.00,,,0.00,weatherlink.com 1.10,2013-10-05 10:36:00,
2013-10-05 05:51:00,67.1,64.0,30.02,SW,218,0.0,0.0,90,0.00,,,0.00,weatherlink.com 1.10,2013-10-05 10:51:00,
2013-10-05 06:06:00,66.7,63.0,30.01,SW,218,0.0,0.0,89,0.00,,,0.00,weatherlink.com 1.10,2013-10-05 11:06:00,
2013-10-05 06:21:00,66.6,64.0,30.01,SW,218,0.0,0.0,90,0.00,,,0.00,weatherlink.com 1.10,2013-10-05 11:21:00,
2013-10-05 06:51:00,67.3,64.0,30.01,SW,218,0.0,0.0,90,0.00,,,0.00,weatherlink.com 1.10,2013-10-05 11:51:00,
2013-10-05 07:06:00,67.5,65.0,30.02,SW,218,0.0,0.0,90,0.00,,,0.00,weatherlink.com 1.10,2013-10-05 12:06:00,
2013-10-05 07:21:00,68.0,65.0,30.01,SW,218,0.0,0.0,90,0.00,,,0.00,weatherlink.com 1.10,2013-10-05 12:21:00,
2013-10-05 07:36:00,69.0,66.0,30.02,SW,218,0.0,1.0,89,0.00,,,0.00,weatherlink.com 1.10,2013-10-05 12:36:00,
2013-10-05 07:51:00,70.6,67.0,30.01,SW,218,0.0,0.0,89,0.00,,,0.00,weatherlink.com 1.10,2013-10-05 12:51:00,
2013-10-05 08:06:00,72.3,68.0,30.02,SW,218,0.0,0.0,86,0.00,,,0.00,weatherlink.com 1.10,2013-10-05 13:06:00,
2013-10-05 08:21:00,73.2,69.0,30.02,SW,218,0.0,2.0,85,0.00,,,0.00,weatherlink.com 1.10,2013-10-05 13:21:00,
2013-10-05 08:36:00,73.5,68.0,30.02,SE,142,0.0,2.0,84,0.00,,,0.00,weatherlink.com 1.10,2013-10-05 13:36:00,
2013-10-05 08:51:00,74.2,70.0,30.02,SE,142,0.0,1.0,85,0.00,,,0.00,weatherlink.com 1.10,2013-10-05 13:51:00,
2013-10-05 09:06:00,75.5,70.0,30.02,WSW,258,6.0,6.0,82,0.00,,,0.00,weatherlink.com 1.10,2013-10-05 14:06:00,
2013-10-05 09:21:00,77.0,70.0,30.02,South,169,1.0,10.0,80,0.00,,,0.00,weatherlink.com 1.10,2013-10-05 14:21:00,
2013-10-05 09:37:00,78.5,70.0,30.02,South,184,3.0,7.0,75,0.00,,,0.00,weatherlink.com 1.10,2013-10-05 14:37:00,
2013-10-05 09:52:00,78.4,70.0,30.02,SW,234,2.0,5.0,76,0.00,,,0.00,weatherlink.com 1.10,2013-10-05 14:52:00,
2013-10-05 10:07:00,79.1,71.0,30.02,WSW,237,0.0,4.0,76,0.00,,,0.00,weatherlink.com 1.10,2013-10-05 15:07:00,
2013-10-05 10:22:00,80.7,71.0,30.02,WSW,237,0.0,8.0,72,0.00,,,0.00,weatherlink.com 1.10,2013-10-05 15:22:00,
2013-10-05 10:37:00,81.8,72.0,30.02,SW,219,6.0,7.0,71,0.00,,,0.00,weatherlink.com 1.10,2013-10-05 15:37:00,
2013-10-05 10:52:00,82.4,72.0,30.01,WSW,245,2.0,7.0,70,0.00,,,0.00,weatherlink.com 1.10,2013-10-05 15:52:00,
2013-10-05 11:07:00,82.6,71.0,30.01,SSW,196,0.0,9.0,68,0.00,,,0.00,weatherlink.com 1.10,2013-10-05 16:07:00,
2013-10-05 11:22:00,82.9,72.0,30.01,SSE,161,1.0,8.0,69,0.00,,,0.00,weatherlink.com 1.10,2013-10-05 16:22:00,
2013-10-05 11:37:00,83.8,72.0,30.00,West,271,7.0,12.0,68,0.00,,,0.00,weatherlink.com 1.10,2013-10-05 16:37:00,
2013-10-05 11:52:00,84.3,72.0,30.00,West,275,7.0,9.0,66,0.00,,,0.00,weatherlink.com 1.10,2013-10-05 16:52:00,
2013-10-05 12:07:00,85.1,72.0,30.00,WSW,238,9.0,10.0,66,0.00,,,0.00,weatherlink.com 1.10,2013-10-05 17:07:00,
2013-10-05 12:22:00,85.8,73.0,29.99,West,264,8.0,13.0,65,0.00,,,0.00,weatherlink.com 1.10,2013-10-05 17:22:00,
2013-10-05 12:37:00,86.4,73.0,29.98,South,186,9.0,11.0,65,0.00,,,0.00,weatherlink.com 1.10,2013-10-05 17:37:00,
2013-10-05 12:52:00,86.3,72.0,29.98,West,280,4.0,10.0,63,0.00,,,0.00,weatherlink.com 1.10,2013-10-05 17:52:00,
2013-10-05 13:07:00,86.5,72.0,29.97,West,259,4.0,10.0,63,0.00,,,0.00,weatherlink.com 1.10,2013-10-05 18:07:00,
2013-10-05 13:22:00,87.1,72.0,29.96,South,180,0.0,9.0,61,0.00,,,0.00,weatherlink.com 1.10,2013-10-05 18:22:00,
2013-10-05 13:37:00,87.5,71.0,29.95,SSW,212,1.0,9.0,59,0.00,,,0.00,weatherlink.com 1.10,2013-10-05 18:37:00,
2013-10-05 13:52:00,87.5,71.0,29.94,South,173,0.0,8.0,58,0.00,,,0.00,weatherlink.com 1.10,2013-10-05 18:52:00,
2013-10-05 14:07:00,87.8,72.0,29.93,SSW,199,2.0,7.0,59,0.00,,,0.00,weatherlink.com 1.10,2013-10-05 19:07:00,
2013-10-05 14:22:00,87.2,72.0,29.92,SSW,209,2.0,8.0,61,0.00,,,0.00,weatherlink.com 1.10,2013-10-05 19:22:00,
2013-10-05 14:37:00,86.8,72.0,29.91,WSW,246,0.0,5.0,62,0.00,,,0.00,weatherlink.com 1.10,2013-10-05 19:37:00,
2013-10-05 14:52:00,87.3,72.0,29.91,South,177,1.0,7.0,60,0.00,,,0.00,weatherlink.com 1.10,2013-10-05 19:52:00,
2013-10-05 15:07:00,87.9,72.0,29.91,WSW,257,1.0,7.0,59,0.00,,,0.00,weatherlink.com 1.10,2013-10-05 20:07:00,
2013-10-05 15:22:00,87.7,71.0,29.90,WSW,240,5.0,16.0,58,0.00,,,0.00,weatherlink.com 1.10,2013-10-05 20:22:00,
2013-10-05 15:37:00,88.2,71.0,29.90,South,188,0.0,11.0,57,0.00,,,0.00,weatherlink.com 1.10,2013-10-05 20:37:00,
2013-10-05 15:53:00,88.0,71.0,29.89,WSW,247,4.0,7.0,57,0.00,,,0.00,weatherlink.com 1.10,2013-10-05 20:53:00,
2013-10-05 16:08:00,87.7,72.0,29.89,SSW,199,3.0,9.0,59,0.00,,,0.00,weatherlink.com 1.10,2013-10-05 21:08:00,
2013-10-05 16:23:00,87.1,71.0,29.89,SW,221,4.0,9.0,59,0.00,,,0.00,weatherlink.com 1.10,2013-10-05 21:23:00,
2013-10-05 16:38:00,87.9,71.0,29.89,West,269,5.0,9.0,58,0.00,,,0.00,weatherlink.com 1.10,2013-10-05 21:38:00,
2013-10-05 16:53:00,88.8,72.0,29.89,SSW,198,1.0,4.0,58,0.00,,,0.00,weatherlink.com 1.10,2013-10-05 21:53:00,
2013-10-05 17:08:00,88.9,72.0,29.89,WSW,250,2.0,7.0,58,0.00,,,0.00,weatherlink.com 1.10,2013-10-05 22:08:00,
2013-10-05 17:23:00,87.8,72.0,29.89,West,259,0.0,6.0,59,0.00,,,0.00,weatherlink.com 1.10,2013-10-05 22:23:00,
2013-10-05 17:38:00,86.6,72.0,29.89,WSW,245,1.0,4.0,61,0.00,,,0.00,weatherlink.com 1.10,2013-10-05 22:38:00,
2013-10-05 17:53:00,85.4,71.0,29.89,WSW,241,0.0,3.0,63,0.00,,,0.00,weatherlink.com 1.10,2013-10-05 22:53:00,
2013-10-05 18:08:00,84.7,73.0,29.89,WSW,241,0.0,1.0,68,0.00,,,0.00,weatherlink.com 1.10,2013-10-05 23:08:00,
2013-10-05 18:23:00,83.6,72.0,29.89,WSW,241,0.0,0.0,69,0.00,,,0.00,weatherlink.com 1.10,2013-10-05 23:23:00,
2013-10-05 18:38:00,81.8,73.0,29.89,WSW,240,0.0,0.0,75,0.00,,,0.00,weatherlink.com 1.10,2013-10-05 23:38:00,
2013-10-05 18:53:00,80.5,72.0,29.89,WSW,241,0.0,0.0,75,0.00,,,0.00,weatherlink.com 1.10,2013-10-05 23:53:00,
2013-10-05 19:08:00,79.4,72.0,29.90,WSW,241,0.0,0.0,78,0.00,,,0.00,weatherlink.com 1.10,2013-10-06 00:08:00,
2013-10-05 19:23:00,78.8,72.0,29.90,WSW,241,0.0,0.0,79,0.00,,,0.00,weatherlink.com 1.10,2013-10-06 00:23:00,
2013-10-05 19:38:00,78.3,72.0,29.90,WSW,241,0.0,0.0,80,0.00,,,0.00,weatherlink.com 1.10,2013-10-06 00:38:00,
2013-10-05 19:53:00,77.5,71.0,29.89,WSW,241,0.0,0.0,81,0.00,,,0.00,weatherlink.com 1.10,2013-10-06 00:53:00,
2013-10-05 20:08:00,76.8,71.0,29.89,SSW,194,0.0,0.0,82,0.00,,,0.00,weatherlink.com 1.10,2013-10-06 01:08:00,
2013-10-05 20:23:00,76.1,71.0,29.90,SSW,194,0.0,1.0,83,0.00,,,0.00,weatherlink.com 1.10,2013-10-06 01:23:00,
2013-10-05 20:38:00,75.4,70.0,29.90,SSW,194,0.0,0.0,83,0.00,,,0.00,weatherlink.com 1.10,2013-10-06 01:38:00,
2013-10-05 20:53:00,74.8,70.0,29.90,SSW,194,0.0,0.0,84,0.00,,,0.00,weatherlink.com 1.10,2013-10-06 01:53:00,
2013-10-05 21:08:00,74.2,69.0,29.90,SSW,194,0.0,0.0,84,0.00,,,0.00,weatherlink.com 1.10,2013-10-06 02:08:00,
2013-10-05 21:23:00,73.8,69.0,29.90,SSW,194,0.0,0.0,85,0.00,,,0.00,weatherlink.com 1.10,2013-10-06 02:23:00,
2013-10-05 21:38:00,73.5,69.0,29.89,SSW,194,0.0,0.0,85,0.00,,,0.00,weatherlink.com 1.10,2013-10-06 02:38:00,
2013-10-05 21:53:00,73.2,69.0,29.89,SSW,194,0.0,0.0,86,0.00,,,0.00,weatherlink.com 1.10,2013-10-06 02:53:00,
2013-10-05 22:08:00,72.9,68.0,29.88,SSW,194,0.0,0.0,85,0.00,,,0.00,weatherlink.com 1.10,2013-10-06 03:08:00,
2013-10-05 22:23:00,73.0,68.0,29.88,SSW,194,0.0,0.0,85,0.00,,,0.00,weatherlink.com 1.10,2013-10-06 03:23:00,
2013-10-05 22:38:00,73.4,68.0,29.88,SSW,194,0.0,0.0,84,0.00,,,0.00,weatherlink.com 1.10,2013-10-06 03:38:00,
2013-10-05 22:53:00,73.6,68.0,29.87,SSW,194,0.0,0.0,83,0.00,,,0.00,weatherlink.com 1.10,2013-10-06 03:53:00,
2013-10-05 23:08:00,73.7,68.0,29.87,SSW,194,0.0,0.0,82,0.00,,,0.00,weatherlink.com 1.10,2013-10-06 04:08:00,
2013-10-05 23:23:00,73.7,68.0,29.86,SSW,194,0.0,0.0,82,0.00,,,0.00,weatherlink.com 1.10,2013-10-06 04:23:00,
2013-10-05 23:38:00,73.9,68.0,29.86,SSW,194,0.0,0.0,81,0.00,,,0.00,weatherlink.com 1.10,2013-10-06 04:38:00,
2013-10-05 23:53:00,74.2,67.0,29.86,SSW,196,0.0,1.0,79,0.00,,,0.00,weatherlink.com 1.10,2013-10-06 04:53:00,